shoulder
new_line
new_line
first
second
third
Al di la della Luna; Beyond the Moon; Astrophotography; Astrofotografia; Danilo Pivato
 
 
         
         
         
         
2021

Orbital Elements

Epoch 2022 Jan. 21.0 TT = JDT 2459600.5                                         
T 2021 Aug. 27.73563 TT                                                      Rudenko                 
q   1.0259965                (2000.0)                       P                    Q                  
n   0.07228998         Peri.  207.48835     -0.26844971     -0.50831959             
a   5.7071241         Node   270.20161     +0.96327515     -0.13638390             
e   0.8202253            Incl.   54.91128      +0.00597791     -0.85030031             
P  13.6
Returns in the future: 04/2035   
 
         
         
         
2008 - 2007

Orbital Elements

Epoch 2008 Jan. 15.0 TT = JDT 2454480.5
T 2008 Jan. 27.02282 TT                                                              MPC
q   1.0271342                 (2000.0)                   P                        Q
n   0.07239258         Peri.  207.50653     -0.27030038      -0.50619163
a   5.7017306         Node   270.34153     +0.96276231     -0.13756816
e   0.8198557             Incl.   54.98302     +0.00514267     -0.85137831
P  13.61
Returns in the future: 08/2021    
 
         
         
-
2007.12.19
2007.11.26
2007.11.30
2007.12.04
2007.12.05
         
2007.12.12
2007.12.14
2007.12.15
2007.12.19
2007.12.26
         
2007.12.26 LRGB
2007.12.27
2007.12.27 RGB
2007.12.28
2007.12.28 RGB
         
2007.12.29
2007.12.29 RGB
2008.01.01
2008.01.01 RGB
         
         
         
         
         
         

 

       
 
Since: 01/01/2004
 
           
Since: 01/11/2010